[[{"header":{"parameterUnit":"m.s-1","parameterCategory":1,"la1":30.2991,"la2":30.254,"lo1":-89.0895,"lo2":-89.0444,"dy":0.0017,"dx":0.0017,"nx":28,"ny":28,"refTime":"2023-04-12T21:00:00:Z","depth":0,"parameterNumber":2,"parameterNumberName":"U-component_of_WINDS"},"data":[0,0,0,0,0,0,0,0,0,0,0,0,0,0,0,0,0,0,0,0,0,0,0,0,0,0,0,0,0,0,0,0,0,0,0,0,0,0,0,0,0,0,0,0,0,0,0,0,0,0,0,0,0,0,0,0,0,0,3.8153,3.8154,0,3.8217,3.8217,3.8218,3.8203,3.8202,3.8201,3.8199,3.827,3.8272,3.8275,0,0,0,0,0,0,0,0,0,0,0,0,0,3.8025,3.8027,3.8153,3.8154,3.8155,3.8217,3.8217,3.8218,3.8203,3.8202,3.82,3.8199,3.8269,3.8272,3.8276,0,0,0,0,0,0,0,0,0,0,0,0,0,3.8084,3.8028,3.8153,3.8154,3.8155,3.8216,3.8217,3.8219,3.8204,3.8202,3.82,3.8198,3.8267,3.8272,3.8276,3.8341,0,0,3.829,3.8292,0,0,0,0,0,0,0,0,3.8081,3.8089,3.8153,3.8154,3.8155,3.82,3.8198,3.826,3.8204,3.8185,3.8199,3.8197,3.8248,3.8254,3.827,3.8344,3.8347,3.829,3.8293,3.8295,3.8296,0,0,0,0,0,0,0,3.8077,3.8086,3.8178,3.8154,3.8156,3.8154,3.816,3.821,3.8227,3.8187,3.8186,3.8193,3.8248,3.8266,3.8272,3.8348,3.829,3.8294,3.8297,3.8299,3.8484,3.8486,0,0,0,0,0,0,3.8071,3.8083,3.8176,3.818,3.8113,3.8158,3.8165,3.8188,3.8226,3.823,3.8195,3.8192,3.8259,3.8267,3.8274,3.8356,3.8295,3.8299,3.8302,3.8482,3.8484,3.8487,0,0,0,0,0,0,3.8068,3.8079,3.8174,3.8131,3.8143,3.8162,3.8188,3.819,3.8207,3.8232,3.8235,3.8209,3.8258,3.8268,3.8325,3.8358,3.8301,3.8305,3.8479,3.8483,3.8486,3.8518,0,0,0,0,0,0,3.8064,3.8078,3.8101,3.8132,3.8145,3.8222,3.8189,3.8192,3.8215,3.8212,3.8246,3.825,3.8257,3.8319,3.833,3.8363,3.8309,3.8476,3.8481,3.8485,3.8514,3.8522,3.8529,0,0,0,0,0,3.806,3.8108,3.8103,3.8114,3.8174,3.8223,3.8231,3.8237,3.8217,3.8242,3.8259,3.8249,3.8352,3.8325,3.8337,3.8372,3.8474,3.8479,3.8484,3.8511,3.852,3.8528,0,0,0,0,0,0,3.8082,3.8112,3.8106,3.8165,3.8192,3.8221,3.8252,3.8246,3.828,3.8277,3.8284,3.8292,3.8351,3.8367,3.8336,3.844,3.8411,3.8419,3.8427,3.8436,3.8443,3.8439,3.8313,0,0,0,0,0,3.8093,3.8129,3.8154,3.8204,3.8217,3.8233,3.8254,3.8256,3.8285,3.8296,3.8317,3.8346,3.8386,3.8412,3.8449,3.8516,3.8525,3.8547,3.8554,3.856,3.8567,3.8608,3.8619,3.8503,3.8503,3.8503,0,0,3.8118,3.8139,3.8161,3.8209,3.823,3.8269,3.8242,3.8284,3.8314,3.8303,3.8359,3.8375,3.8409,3.8473,3.8502,3.8488,3.8601,3.8566,3.8571,3.8575,3.8614,3.8625,3.8635,3.8506,3.8506,3.8505,0,0,3.8183,3.8201,3.8246,3.8268,3.83,3.831,3.8321,3.8351,3.8362,3.8418,3.8411,3.8448,3.8515,3.854,3.8562,3.864,3.8635,3.8653,3.8691,3.8731,3.874,3.8748,3.8779,3.879,3.8659,3.8659,3.8659,0,3.821,3.8267,3.827,3.8314,3.8337,3.8328,3.8376,3.8397,3.844,3.8457,3.8441,3.8527,3.8549,3.862,3.8639,3.8656,3.8672,3.8649,3.8738,3.8746,3.8754,3.8784,3.8795,3.8661,3.8661,3.8661,3.8661,0,3.83,3.834,3.8373,3.8415,3.8441,3.8486,3.8499,3.8526,3.8527,3.854,3.8599,3.8625,3.867,3.8686,3.8687,3.8759,3.875,3.8736,3.8708,3.8767,3.8796,3.8807,3.8665,3.8664,3.8663,3.8663,0,0,3.838,3.8425,3.8437,3.8457,3.8493,3.8525,3.8572,3.8614,3.8639,3.8669,3.8711,3.8769,3.8757,3.8782,3.8786,3.882,3.8885,3.8802,3.8803,3.8819,3.897,3.8982,3.8995,3.8881,3.8883,3.8885,3.8968,0,3.8451,3.8531,3.8537,3.8611,3.865,3.8644,3.8685,3.8713,3.8727,3.8764,3.878,3.8822,3.8801,3.8817,3.8851,3.887,3.8916,3.8864,3.8923,3.8925,3.8916,3.9009,3.9021,3.9099,3.8979,3.8981,3.8982,0,3.8544,3.8577,3.8655,3.8688,3.8705,3.8741,3.8783,3.8817,3.885,3.8858,3.8887,3.8887,3.8939,3.8907,3.898,3.8945,3.8969,3.8983,3.8986,3.8993,3.8958,3.9022,3.9123,3.9136,3.8999,3.8998,3.8996,0,3.8598,3.8663,3.8718,3.8735,3.8775,3.8802,3.882,3.8851,3.8877,3.8914,3.8932,3.8974,3.8998,3.9032,3.9045,3.902,3.9119,3.9087,3.9129,3.9129,3.9151,3.915,3.9261,3.9164,3.9163,3.9163,3.9163,0,3.8678,3.8726,3.8744,3.8778,3.8834,3.8841,3.8896,3.8913,3.8942,3.8982,3.8979,3.9017,3.903,3.9071,3.9082,3.9143,3.9153,3.9163,3.9166,3.9165,3.9164,3.9182,3.9178,3.9166,3.9166,3.9165,3.9164,0,3.8748,3.8761,3.8822,3.8855,3.8865,3.8905,3.8934,3.8969,3.8983,3.9034,3.9046,3.9069,3.9117,3.9133,3.9192,3.9199,3.9271,3.9268,3.926,3.9261,3.9303,3.93,3.9431,3.945,3.9338,3.9339,3.934,0,3.8799,3.8836,3.8874,3.89,3.8919,3.896,3.8987,3.8997,3.9026,3.9068,3.9099,3.9147,3.9186,3.9265,3.9288,3.9334,3.9333,3.9376,3.934,3.9339,3.9338,3.9336,3.9342,3.9384,3.9385,3.9386,3.9387,0,3.8889,3.8894,3.8932,3.8974,3.9006,3.904,3.9072,3.9094,3.9109,3.9143,3.9192,3.9222,3.9283,3.9332,3.9379,3.94,3.9398,3.9398,3.941,3.9411,3.9406,3.9412,3.9281,3.9395,3.9394,3.9393,3.9393,3.9393,3.8953,3.8987,3.902,3.9064,3.9089,3.912,3.9155,3.9174,3.9215,3.9264,3.9268,3.9322,3.9358,3.9421,3.9445,3.949,3.9478,3.9496,3.9501,3.9506,3.951,3.9397,3.9498,3.9498,3.9498,3.9498,3.9498,0,3.9045,3.9066,3.9106,3.9152,3.9188,3.918,3.9217,3.9247,3.9295,3.9327,3.9366,3.9425,3.9473,3.9501,3.955,3.9581,3.9581,3.9593,3.9592,3.9598,3.9516,3.9502,3.9593,3.9593,3.9593,3.9593,3.9592,3.9592,3.9098,3.9156,3.9166,3.9239,3.926,3.9312,3.9334,3.9364,3.9391,3.9456,3.9496,3.9513,3.9545,3.9597,3.9642,3.9649,3.9669,3.9683,3.9689,3.9613,3.9603,3.9594,3.9581,3.9686,3.9687,3.9768,3.9769,3.9769]},{"header":{"parameterUnit":"m.s-1","parameterCategory":1,"la1":30.2991,"la2":30.254,"lo1":-89.0895,"lo2":-89.0444,"dy":0.0017,"dx":0.0017,"nx":28,"ny":28,"refTime":"2023-04-12T21:00:00:Z","depth":0,"parameterNumber":3,"parameterNumberName":"V-component_of_WINDS"},"data":[0,0,0,0,0,0,0,0,0,0,0,0,0,0,0,0,0,0,0,0,0,0,0,0,0,0,0,0,0,0,0,0,0,0,0,0,0,0,0,0,0,0,0,0,0,0,0,0,0,0,0,0,0,0,0,0,0,0,1.7065,1.7066,0,1.7166,1.7167,1.7168,1.7172,1.7171,1.717,1.7169,1.7272,1.7276,1.728,0,0,0,0,0,0,0,0,0,0,0,0,0,1.6875,1.6879,1.7065,1.7066,1.7068,1.7165,1.7167,1.7168,1.7173,1.7171,1.717,1.7168,1.7271,1.7276,1.728,0,0,0,0,0,0,0,0,0,0,0,0,0,1.6965,1.688,1.7065,1.7082,1.7084,1.7165,1.7167,1.7168,1.7173,1.7171,1.7169,1.7168,1.7269,1.7275,1.7281,1.7352,0,0,1.7299,1.7301,0,0,0,0,0,0,0,0,1.696,1.6972,1.7078,1.7081,1.7084,1.7155,1.7138,1.723,1.7173,1.7139,1.7169,1.7167,1.7235,1.7243,1.7266,1.7357,1.7361,1.7299,1.7303,1.7305,1.7307,0,0,0,0,0,0,0,1.6954,1.6968,1.7105,1.7079,1.7083,1.7083,1.7094,1.7155,1.7196,1.7142,1.7143,1.7154,1.7236,1.726,1.7268,1.7363,1.7299,1.7304,1.7308,1.731,1.7513,1.7515,0,0,0,0,0,0,1.6944,1.6962,1.7102,1.7108,1.7016,1.7088,1.71,1.7134,1.7195,1.7203,1.7156,1.7154,1.7251,1.7262,1.7272,1.7357,1.7305,1.731,1.7314,1.7511,1.7513,1.7515,0,0,0,0,0,0,1.694,1.6957,1.7098,1.7035,1.7053,1.7093,1.7131,1.7137,1.7161,1.7205,1.7213,1.7173,1.725,1.7264,1.7331,1.736,1.7313,1.7318,1.7509,1.7512,1.7514,1.7528,0,0,0,0,0,0,1.6935,1.6955,1.6983,1.7036,1.7057,1.7156,1.7133,1.714,1.7171,1.717,1.7224,1.7231,1.725,1.7322,1.7337,1.7367,1.7323,1.7506,1.751,1.7514,1.7525,1.7531,1.7536,0,0,0,0,0,1.6928,1.6984,1.6985,1.7002,1.7093,1.7158,1.7169,1.719,1.7173,1.7201,1.7229,1.7229,1.7355,1.7329,1.7346,1.7378,1.7505,1.7509,1.7513,1.7523,1.753,1.7536,0,0,0,0,0,0,1.6936,1.6992,1.6993,1.7068,1.7108,1.7158,1.7195,1.7197,1.7243,1.724,1.7263,1.7275,1.7341,1.7367,1.7337,1.7448,1.7428,1.7435,1.7429,1.7436,1.7442,1.7434,1.7328,0,0,0,0,0,1.6946,1.6994,1.704,1.7102,1.7122,1.7155,1.7184,1.7195,1.7238,1.7255,1.7288,1.7329,1.7377,1.7408,1.7455,1.7529,1.7539,1.7559,1.7564,1.7569,1.7575,1.7612,1.762,1.753,1.753,1.753,0,0,1.6968,1.7004,1.7034,1.7104,1.7137,1.7185,1.7169,1.7222,1.7257,1.7263,1.7327,1.7353,1.74,1.7469,1.7502,1.7493,1.7602,1.7574,1.7577,1.7581,1.7617,1.7625,1.7633,1.7533,1.7532,1.7532,0,0,1.7032,1.7066,1.7119,1.7151,1.7199,1.722,1.7232,1.7282,1.7298,1.7364,1.7368,1.741,1.7494,1.7526,1.7553,1.7625,1.7626,1.764,1.7668,1.7704,1.7711,1.7717,1.774,1.7748,1.7646,1.7646,1.7646,0,1.7053,1.7127,1.7146,1.7198,1.7227,1.7234,1.7286,1.7317,1.7378,1.7398,1.7387,1.7489,1.7521,1.7596,1.7613,1.7636,1.765,1.7633,1.7708,1.7715,1.7721,1.7743,1.7752,1.7647,1.7647,1.7647,1.7647,0,1.7149,1.7199,1.7236,1.7293,1.7328,1.738,1.7406,1.7438,1.7446,1.7467,1.7531,1.757,1.7623,1.7642,1.7651,1.7718,1.771,1.7703,1.7683,1.773,1.7751,1.776,1.7649,1.7648,1.7648,1.7648,0,0,1.7222,1.7287,1.73,1.7325,1.7377,1.7416,1.7467,1.7518,1.7543,1.7585,1.7627,1.7695,1.7688,1.7719,1.7731,1.7763,1.7813,1.7752,1.7753,1.776,1.7885,1.7888,1.7898,1.7814,1.7816,1.7818,1.788,0,1.729,1.7381,1.7399,1.7477,1.7522,1.7527,1.7571,1.7606,1.7627,1.7667,1.769,1.7737,1.7726,1.7744,1.7775,1.7801,1.7839,1.7797,1.7852,1.7854,1.7838,1.791,1.7915,1.7972,1.7889,1.789,1.7891,0,1.7382,1.7424,1.7506,1.7549,1.7568,1.7608,1.7654,1.7693,1.7733,1.7745,1.7777,1.7786,1.7837,1.7814,1.7883,1.7854,1.7878,1.7893,1.7896,1.7901,1.7874,1.7914,1.7991,1.7999,1.7905,1.7904,1.7903,0,1.7424,1.7501,1.7559,1.758,1.7632,1.7659,1.7682,1.772,1.7748,1.7788,1.7806,1.7852,1.7877,1.7912,1.7931,1.7913,1.7998,1.7978,1.8008,1.8007,1.8025,1.8024,1.8105,1.8043,1.8043,1.8043,1.8043,0,1.7497,1.7547,1.7578,1.7614,1.7668,1.7687,1.7741,1.7763,1.7796,1.7835,1.7842,1.7879,1.7903,1.7942,1.7957,1.801,1.8022,1.8032,1.8036,1.8031,1.8029,1.8046,1.8042,1.8045,1.8045,1.8044,1.8044,0,1.7553,1.7576,1.7639,1.7682,1.7694,1.7732,1.7768,1.7802,1.7822,1.7871,1.7883,1.7914,1.796,1.7982,1.8041,1.8051,1.811,1.8112,1.8096,1.8097,1.8125,1.8121,1.8218,1.8231,1.8163,1.8163,1.8164,0,1.7598,1.7635,1.7681,1.7707,1.773,1.7773,1.7801,1.782,1.7849,1.7895,1.7923,1.7969,1.8007,1.808,1.8106,1.815,1.8151,1.8182,1.8158,1.815,1.8149,1.8145,1.8148,1.8186,1.8187,1.8187,1.8188,0,1.7673,1.7681,1.7722,1.7765,1.7798,1.7833,1.7868,1.7889,1.7913,1.7945,1.7992,1.8021,1.8078,1.8123,1.8167,1.819,1.8192,1.8195,1.8204,1.8199,1.8187,1.8191,1.8106,1.8193,1.8192,1.8192,1.8192,1.8191,1.7723,1.7755,1.7792,1.7835,1.7863,1.7894,1.7927,1.7949,1.7989,1.8036,1.8045,1.8094,1.8129,1.8189,1.8212,1.8249,1.8243,1.8256,1.8259,1.8262,1.8262,1.8182,1.8258,1.8258,1.8258,1.8258,1.8258,0,1.7796,1.7819,1.7859,1.7906,1.794,1.7939,1.7976,1.8004,1.8046,1.8079,1.8115,1.8167,1.8209,1.8238,1.8281,1.8305,1.8307,1.8315,1.8313,1.8317,1.8267,1.8254,1.8313,1.8313,1.8313,1.8313,1.8313,1.8313,1.7838,1.7892,1.7904,1.7971,1.7993,1.8041,1.8061,1.809,1.8115,1.8172,1.8207,1.8226,1.8256,1.83,1.8338,1.8346,1.836,1.8368,1.8375,1.8327,1.8321,1.8316,1.8304,1.8372,1.8372,1.8422,1.8423,1.8423]}]]